Location: Lake Arresoe
(56.0000°N, 12.5000°E)
Time: 16:27:15
(UTC+02:00)

Resurs 1-4 Rocket - Pass Details

Date: 03 August 2021
Orbit: 799 x 814 km, 98.6° (Epoch: 27 September)

Event Time Altitude Azimuth Distance (km) Brightness Sun altitude
Rises 03:25:08 0° 15° (NNE) 3,349 7.0 -11.7°
Reaches altitude 10° 03:27:30 10° 13° (NNE) 2,411 5.9 -11.5°
Maximum altitude 03:32:48 70° 291° (WNW) 863 2.2 -11.1°
Enters shadow 03:37:19 14° 210° (SSW) 2,104 3.6 -10.7°
